NOAA 16 DEB

Satellite information

Favourite Embed

Satellite Type and Status

DEBRISIN ORBIT

Key statistics

Satellite NOAA 16 DEB at a glance.

Uptime

8999

Days in orbit

Revolutions

≈ 14.2

Per day

Orbit

SSO

Sun Synchronous Orbit

Inclination

98.7

Latest

Satellite identification and parameters

Extended collection of information and parameters for NOAA 16 DEB.

Object identification

Identified? True

Debris? True

Object name: NOAA 16 DEB

International designator: 2000-055Y

Object number (NORAD): 41065

Object ID (CCSDS): 41065

Country: UNITED STATES OF AMERICA (US)

Current information (Y/N): Y

RCS size: SMALL

Orbital parameters

Period: 101.405 minutes

Inclination: 98.6581 deg

SMA: 7203.315 km

Apoapsis: 834.88 km

Periapsis: 815.481 km

RAAN: 187.0682 deg

Eccentricy: 0.0013465

Argument of periapsis: 164.8386 deg

Mean anomaly: 195.3196 deg

Mean motion: 14.20051592 rev/day

Mean motion (dot): 0.0000246 rev/day2

B* drag term: 0.0011744 1/REarth

Two-line elements (TLE)

Creation date: May 12, 2025, 2:31 a.m.

Reference frame: TEME

Reference center: EARTH

Epoch: May 11, 2025, 5 p.m. UTC

TLE line 0: 0 NOAA 16 DEB

TLE line 1: 1 41065U 00055Y 25131.70861621 .00002460 00000-0 11744-2 0 9990

TLE line 2: 2 41065 98.6581 187.0682 0013465 164.8386 195.3196 14.20051592487655

Live tracking on map

Real-time ground track for satellite NOAA 16 DEB.

In-orbit conjunctions

A list of the most updated potential collisions computed for object NOAA 16 DEB.

Target Orbit TCA Probability of collision Miss distance Type
CZ-6A DEB LEO 2025-04-05 01:47:52 0.0001130259 188.0 (m) DEBRIS
COSMOS 2251 DEB LEO 2025-03-17 01:50:39 0.0002085703 119.0 (m) DEBRIS
CZ-6A DEB LEO 2024-09-17 11:03:36 0.0008575429 438.0 (m) DEBRIS
SL-16 R/B LEO 2024-08-13 07:50:02 0.0001595823 615.0 (m) ROCKET BODY
SL-16 R/B LEO 2024-06-28 16:04:40 0.000434058 260.0 (m) ROCKET BODY

Associated space launch

The NOAA K, L and M POES satellites begin the fifth generation of improved environmental monitoring in support of NOAA missions. The instrument payload has significant improvements and additions/deletions. The instrument changes have effected the spacecraft subsystems and data formats.

NOAA 16 DEB was lifted into orbit during the mission ‘Titan II SLV | NOAA 16’, on board a Titan II SLV space rocket.

The launch took place on Sept. 21, 2000, 10:22 a.m. from Space Launch Complex 4W.

For more information about the launch, click the button.

Launch to space Titan II SLV | NOAA 16
Titan II SLV | NOAA 16

Agency: N/A

Status: Launch Successful

Launch date: Sept. 21, 2000, 10:22 a.m. UTC

Rocket: Titan II SLV

Launch pad: Space Launch Complex 4W

Location: Vandenberg SFB, CA, USA

...

Latest news about this satellite

There are no fresh news available about this satellite. Check back as we update our databases every day.


Newsletter sign-up

Weekly statistics, charts and insights to help you stay on top of the space industry.